Location: Trois-Rivi�res
(46.3500°N, 72.5500°W)
Time: 20:06:48
(UTC-04:00)

OTV 5 (USA 277) - Pass Details

Date: 15 October 2017
Orbit: 404 x 417 km, 43.0° (Epoch: 07 September)

Event Time Altitude Azimuth Distance (km) Brightness Sun altitude
Rises 18:42:45 0° 249° (WSW) 2,351 ? -7.6°
Reaches altitude 10° 18:44:55 10° 242° (WSW) 1,489 ? -8.0°
Maximum altitude 18:48:07 41° 171° (S) 614 ? -8.5°
Enters shadow 18:51:00 12° 101° (E) 1,373 ? -9.0°
